カタログに戻る

COSMOS 2065

運用中ナビゲーションLEO
NORAD 20550·PAYLOAD·🇷🇺 Russia

打ち上げ Apr 6, 1990 から Plesetsk Cosmodrome

Loading…

次のパス (今後24時間)

TLE

最新Source: Space-Track

元期: Sep 14, 2026, 04:41 UTC

1 20550U 90029B   26257.19578914  .00000003  00000-0  12806-3 0  9991
2 20550  73.9827 180.3809 0008626 211.5215 300.9891 12.49207338661820

AllMySatでCOSMOS 2065をリアルタイム追跡

Download on the App Store